NOAA 16 DEB, 42421

Orbit data source: Space-Track

NOAA 16 DEB, 42421 is space debris in SSO originally from a launch on Thu, 21 Sep 2000 UTC launched from the Air Force Western Test Range (AFWTR). Debris objects in space refer to the collection of defunct objects orbiting the Earth. Examples of debris include non-operational satellites, rocket bodies, and fragments generated from explosions, collisions, or faulty payload assembly.

Loading next visibility...
Identifier
42421, 2000-055TR
Orbit
SSO
Country
Flag of USUS
Related business
Manufacturer
Unknown
Mission
Spacecraft
Bus & Motor
Unknown
Mass
Unknown
Launch date (UTC)
2000-09-21 (26 years ago)
Launch vehicle
Unknown
Launch site
Air Force Western Test Range (AFWTR)
Object type
Payload
Rocket body
Debris
Shape & HBR
Unknown shape, 0.1 m
Radar Cross Section
Medium (>0.1 m² and <1 m²)

Expand to show TLE details & history
Last TLE update: 1 day ago

TLE from 1 day ago
0 NOAA 16 DEB
1 42421U 00055TR  26171.19356885  .00002267  00000-0  12945-2 0  9995
2 42421  98.8883 148.7780 0082865  84.9857 276.0765 14.08892849490788
Epoch: 2026-06-20T04:38Z
TLE epoch observation values (Epoch: 2026-06-20T04:38:44.348Z)
Latitude
-0.0001°
Longitude
170.68153°
Altitude
860.196 km
Speed
7.425 km/s
True Right ascension
09h 55m 06s
True Declination
0° 00' 00"
Sunlit
Object was in daylight at epoch
Visualization orbit readout
Latitude
Unknown
Longitude
Unknown
Altitude
Unknown
Speed
Unknown
Apparent Right ascension
Unknown
Apparent Declination
Unknown
Sunlit
N/A
Visualization observer readout
Local Sidereal Time
00:15:05
Azimuth
Unknown
Elevation
Unknown
Doppler factor
Unknown
Orbital elements
Apogee altitude
920.326 km
Perigee altitude
800.363 km
Semi-major axis
7,238.482 km
Eccentricity
0.00829
Inclination
98.8883°
RAAN
148.778°
Arg. of periapsis
84.9857°
True anomaly
275.13128°
Mean anomaly
276.0765°
Eccentric anomaly
275.60399°
Mean motion
3.52429 °/min
Orbital period
102.15 mins
BSTAR
0.0012945
Loading maneuver chart data...
Computing Atmospheric mass density...
Loading historical data...
Loading historical data...
Loading historical data...
Loading historical data...
Loading historical data...
Loading historical data...
Loading historical data...

Documentation

Showing up to 5 results
|